Weather History for Lorain / Elyria, OH

Change the Weather History Date:

Sunday, August 18, 2013

  Actual Average (KCLE) Record (KCLE)
Temperature  
Mean Temperature 66 °F 72 °F  
Max Temperature 79 °F 81 °F 96 °F (1947)
Min Temperature 53 °F 63 °F 46 °F (1962)
Degree Days  
Heating Degree Days 0 0  
Month to date heating degree days 0  
Since 1 June heating degree days 46  
Since 1 July heating degree days 4  
Cooling Degree Days 0 7  
Month to date cooling degree days 140  
Year to date cooling degree days 632  
Since 1 June cooling degree days 573  
Growing Degree Days 16 (Base 50)    
Moisture  
Dew Point 56 °F    
Average Humidity 80    
Maximum Humidity 94    
Minimum Humidity 50    
Precipitation  
Precipitation 0.01 in 0.11 in 0.98 in (1948)
Month to date precipitation 2.07  
Year to date precipitation 24.10  
Snow  
Snow 0.00 in 0.00 in - ()
Month to date snowfall 0.0  
Since 1 June snowfall 0.0  
Since 1 July snowfall 0.0  
Snow Depth -    
Sea Level Pressure  
Sea Level Pressure 30.19 in    
Wind  
Wind Speed 1 mph (ESE)    
Max Wind Speed 5 mph    
Max Gust Speed -    
Visibility 6 miles    
Events Fog    
T = Trace of Precipitation, MM = Missing Value Source: NWS Daily Summary

Daily Weather History Graph

Daily Weather History Graph

Search for Another Location

Airport:

Trip Planner

Search our weather history database for the weather conditions in past years. The results will help you decide how hot, cold, wet, or windy it might be!

Date:

Astronomy

Aug. 18, 2013 Rise Set
Actual Time 6:41 AM EDT 8:23 PM EDT
Civil Twilight 6:11 AM EDT 8:52 PM EDT
Nautical Twilight 5:35 AM EDT 9:28 PM EDT
Astronomical Twilight 4:57 AM EDT 10:06 PM EDT
Moon 6:28 PM EDT (8/18) 3:48 AM EDT (8/18)
Length of Visible Light 14h 40m
Length of Day
13h 42m
Waxing Gibbous, 92% of the Moon is Illuminated
Aug 18
Waxing Gibbous
Aug 20
Full
Aug 28
Last Quarter
Sep 5
New
Sep 12
First Quarter

Hourly Weather History & Observations

Time (EDT) Temp. Dew Point Humidity Pressure Visibility Wind Dir Wind Speed Gust Speed Precip Events Conditions
12:53 AM 59.0 °F 55.0 °F 87% 30.20 in 8.0 mi Calm Calm - N/A   Clear
1:53 AM 57.0 °F 54.0 °F 89% 30.20 in 7.0 mi Calm Calm - N/A   Clear
2:53 AM 55.9 °F 53.1 °F 90% 30.20 in 5.0 mi Calm Calm - N/A   Clear
3:53 AM 55.0 °F 51.1 °F 86% 30.19 in 4.0 mi Calm Calm - N/A   Clear
4:48 AM 53.6 °F 51.8 °F 94% 30.20 in 2.0 mi Calm Calm - N/A   Clear
4:53 AM 54.0 °F 52.0 °F 93% 30.19 in 1.2 mi Calm Calm - N/A   Clear
5:04 AM 53.6 °F 51.8 °F 94% 30.20 in 0.5 mi Calm Calm - N/A Fog Fog
5:24 AM 53.6 °F 50.0 °F 88% 30.19 in 0.2 mi Calm Calm - N/A Fog Fog
5:41 AM 53.6 °F 51.8 °F 94% 30.20 in 0.5 mi Calm Calm - N/A Fog Fog
5:53 AM 54.0 °F 51.1 °F 90% 30.20 in 0.8 mi Calm Calm - N/A   Clear
5:58 AM 53.6 °F 51.8 °F 94% 30.20 in 2.0 mi Calm Calm - N/A   Clear
6:07 AM 53.6 °F 51.8 °F 94% 30.20 in 5.0 mi Calm Calm - N/A   Clear
6:37 AM 53.6 °F 50.0 °F 88% 30.21 in 1.5 mi Calm Calm - N/A   Clear
6:53 AM 54.0 °F 51.1 °F 90% 30.20 in 2.0 mi Calm Calm - N/A   Clear
7:11 AM 53.6 °F 51.8 °F 94% 30.21 in 1.5 mi South 4.6 mph - N/A   Clear
7:23 AM 53.6 °F 51.8 °F 94% 30.22 in 2.0 mi Calm Calm - N/A   Clear
7:53 AM 55.0 °F 53.1 °F 93% 30.22 in 3.0 mi Calm Calm - 0.01 in   Clear
8:16 AM 57.2 °F 53.6 °F 88% 30.22 in 2.0 mi Calm Calm - N/A   Clear
8:32 AM 59.0 °F 55.4 °F 88% 30.23 in 4.0 mi Calm Calm - N/A   Clear
8:53 AM 64.0 °F 57.0 °F 78% 30.23 in 9.0 mi South 3.5 mph - N/A   Clear
9:53 AM 66.9 °F 57.9 °F 73% 30.22 in 10.0 mi SSE 3.5 mph - N/A   Clear
10:53 AM 71.1 °F 60.1 °F 68% 30.23 in 10.0 mi Calm Calm - N/A   Clear
11:53 AM 75.9 °F 59.0 °F 56% 30.21 in 10.0 mi Calm Calm - N/A   Clear
12:53 PM 78.1 °F 57.9 °F 50% 30.19 in 10.0 mi Variable 3.5 mph - N/A   Clear
1:53 PM 77.0 °F 57.9 °F 52% 30.19 in 10.0 mi Variable 3.5 mph - N/A   Scattered Clouds
2:53 PM 78.1 °F 59.0 °F 52% 30.18 in 10.0 mi Calm Calm - N/A   Overcast
3:53 PM 75.9 °F 60.1 °F 58% 30.16 in 10.0 mi North 4.6 mph - N/A   Overcast
4:53 PM 77.0 °F 62.1 °F 60% 30.15 in 10.0 mi North 4.6 mph - N/A   Overcast
5:53 PM 77.0 °F 62.1 °F 60% 30.15 in 10.0 mi East 4.6 mph - N/A   Mostly Cloudy
6:53 PM 77.0 °F 62.1 °F 60% 30.13 in 10.0 mi East 4.6 mph - N/A   Clear
7:53 PM 73.9 °F 63.0 °F 68% 30.13 in 10.0 mi NE 3.5 mph - N/A   Scattered Clouds
8:53 PM 69.1 °F 63.0 °F 81% 30.14 in 9.0 mi East 3.5 mph - N/A   Clear
9:14 PM 69.8 °F 62.6 °F 78% 30.15 in 10.0 mi Calm Calm - N/A   Mostly Cloudy
9:25 PM 68.0 °F 62.6 °F 83% 30.15 in 10.0 mi East 3.5 mph - N/A   Mostly Cloudy
9:53 PM 66.0 °F 62.1 °F 87% 30.15 in 10.0 mi Calm Calm - N/A   Scattered Clouds
10:53 PM 66.0 °F 62.1 °F 87% 30.15 in 10.0 mi South 4.6 mph - N/A   Clear
11:53 PM 66.9 °F 63.0 °F 87% 30.14 in 9.0 mi South 4.6 mph - N/A   Clear